[ ตารางข้อมูล ] [ Min-Max ] [ วันนี้4 ] [ วันนี้2 ] [ เทียบ3วัน A ] [ เทียบ4วัน B ]   

วันนี้2   [ ◀ ช่วงเก่ากว่า ] [ ช่วงที่ 187 ] [ ช่วงใหม่กว่า ▶ ] [ ล่าสุด ]    [ 3 ชั่วโมง ] [ 6 ชั่วโมง ] [ 12 ชั่วโมง ] [ 24 ชั่วโมง ]   วันนี้2

อุณภูมิตู้ Knockdown4529  ราย 3 ชั่วโมง  ที่วัดได้ ในช่วงวันเวลา 10/04/2026 (15:32) ถึง 10/04/2026 (18:32) 
ความชื้นในตู้ Knockdown4529  ราย 3 ชั่วโมง  ที่วัดได้ ในช่วงวันเวลา 10/04/2026 (15:32) ถึง 10/04/2026 (18:32) 

 
DS18B20SHTC3 
IDDate d/m/Y & Timedata1
สูง
data2
ต่ำ
data3
นอก
temp
pcb
hum
pcb
Time
 10622  10/04/2026 18:30:58  31.4  31.4  30.2  31.4  68.9  18:30 
 10621  10/04/2026 18:26:16  31.4  31.4  30.3  31.4  68.8  18:26 
 10620  10/04/2026 18:21:34  31.4  31.4  30.4  31.5  68.8  18:21 
 10619  10/04/2026 18:16:51  31.5  31.5  30.5  31.5  68.7  18:16 
 10618  10/04/2026 18:12:07  31.6  31.5  30.6  31.4  68.5  18:12 
 10617  10/04/2026 18:07:26  31.6  31.6  30.5  31.5  68.5  18:07 
 10616  10/04/2026 18:02:40  31.6  31.6  30.7  31.5  68.6  18:02 
 10615  10/04/2026 17:57:58  31.6  31.6  30.7  31.6  68.3  17:57 
 10614  10/04/2026 17:53:16  31.6  31.6  30.9  31.5  68.1  17:53 
 10613  10/04/2026 17:48:32  31.7  31.6  30.9  31.5  68.0  17:48 
 10612  10/04/2026 17:43:49  31.7  31.7  30.8  31.6  68.1  17:43 
 10611  10/04/2026 17:39:07  31.7  31.7  30.9  31.6  67.9  17:39 
 10610  10/04/2026 17:34:25  31.8  31.7  30.9  31.6  67.7  17:34 
 10609  10/04/2026 17:29:44  31.8  31.7  31.1  31.6  67.9  17:29 
 10608  10/04/2026 17:24:59  31.8  31.7  31.2  31.6  67.6  17:24 
 10607  10/04/2026 17:20:17  31.9  31.7  31.4  31.6  67.7  17:20 
 10606  10/04/2026 17:15:35  31.9  31.7  31.5  31.7  67.8  17:15 
 10605  10/04/2026 17:10:53  31.9  31.8  31.5  31.8  67.8  17:10 
 10604  10/04/2026 17:06:11  31.9  31.7  31.5  31.6  67.7  17:06 
 10603  10/04/2026 17:01:30  31.9  31.7  31.5  31.9  67.6  17:01 
 10602  10/04/2026 16:56:48  32.0  31.8  31.5  31.8  67.5  16:56 
 10601  10/04/2026 16:52:06  32.0  31.8  31.8  31.9  67.6  16:52 
 10600  10/04/2026 16:47:23  32.0  31.8  31.8  31.8  67.5  16:47 
 10599  10/04/2026 16:42:40  32.1  31.8  31.8  32.0  67.4  16:42 

Data every 5 minute.


ใช้เวลาประมวลผล 0.00268 วินาที